Location: Los Gatos B&B
(42.6926°N, 77.0646°W)
Time: 15:09:07
(UTC-04:00)

SL-16 R/B - Visible Passes

Search period start: 27 March 2015 00:00
Search period end: 06 April 2015 00:00
Orbit: 841 x 849 km, 71.0° (Epoch: 26 March)

Date Brightness Start Highest point End Pass type
(mag) Time Alt. Az. Time Alt. Az. Time Alt. Az.
27 Mar 4.2 20:08:12 10° NNE 20:09:56 11° NE 20:11:55 10° ENE visible
27 Mar 2.3 21:49:49 10° NNW 21:55:21 59° ENE 21:55:21 59° ENE visible
27 Mar 4.5 23:35:01 10° NW 23:37:16 18° WNW 23:37:16 18° WNW visible
28 Mar 4.2 19:54:23 10° NNE 19:55:54 11° NE 19:57:42 10° ENE visible
28 Mar 2.3 21:35:51 10° NNW 21:41:27 57° ENE 21:42:03 54° E visible
28 Mar 4.3 23:20:58 10° NW 23:23:58 20° W 23:23:58 20° W visible
29 Mar 2.4 21:21:52 10° NNW 21:27:28 56° ENE 21:28:49 45° ESE visible
29 Mar 4.1 23:06:54 10° NW 23:10:44 22° W 23:10:44 22° W visible
30 Mar 2.4 21:07:53 10° NNW 21:13:28 54° ENE 21:15:38 35° ESE visible
30 Mar 4.0 22:52:52 10° NW 22:57:15 23° WSW 22:57:32 22° WSW visible
31 Mar 2.4 20:53:55 10° NNW 20:59:28 52° ENE 21:02:30 26° SE visible
31 Mar 4.0 22:38:49 10° NW 22:43:17 23° WSW 22:44:26 22° WSW visible
01 Apr 2.5 20:39:56 10° NNW 20:45:28 51° ENE 20:49:27 19° SE visible
01 Apr 4.0 22:24:46 10° NW 22:29:18 24° WSW 22:31:23 19° SW visible
02 Apr 2.5 20:25:58 10° NNW 20:31:28 49° ENE 20:36:29 13° SE visible
02 Apr 4.0 22:10:44 10° NW 22:15:20 25° WSW 22:18:25 16° SW visible
03 Apr 2.6 20:11:59 10° NNW 20:17:29 48° ENE 20:22:58 10° SE visible
03 Apr 4.0 21:56:42 10° NW 22:01:22 26° WSW 22:05:33 11° SSW visible
04 Apr 2.6 19:58:01 10° NNW 20:03:29 46° ENE 20:08:57 10° SE visible
04 Apr 4.0 21:42:40 10° NW 21:47:23 27° WSW 21:51:59 10° SSW visible
05 Apr 4.0 21:28:38 10° NW 21:33:25 28° WSW 21:38:05 10° SSW visible
